"Pseudo-MPEC" for P11dmsA

Created 2021 Feb 28 15:07:08 UT using Find_Orb

Click here for an explanation of pseudo-MPECs

 
 Astrometry: 
     P11dmsA  C2021 02 16S_tatqK.o:QOQgy2,=R!YUJU@2lve,pgAstrometryGE9=pG3eypF51
     P11dmsA  C2021 02 16@p(M35(GjScredacted;Mh/click$TohereNuqs44D\!c5rYUh;\F51
     P11dmsA  C2021 02 16!*eurfor%8EmG#!qRQhexplanation%eVI!X2j*EFra(MEGP@?/2F51

Station data:
(F51) Pan-STARRS 1, Haleakala  (N20.707235 W156.255910)  US/Hawaii.
   Observers N. Primak, A. Schultz, S. Watters, J. Thiel, T. Goggia. Measurer
   PS1 Science Consortium. 1.8-m Ritchey-Chrétien + CCD.

Orbital elements:  P11dmsA
   Perihelion 2021 Apr 10.952588 +/- 78.3124 TT = 22:51:43 (JD 2459315.452588)
Epoch 2021 Feb 16.0 TT = JDT 2459261.5   Earth MOID: 0.4970   Ma: 0.0311
M 338.60296813 +/- 33.347415        (J2000 ecliptic)          AutoNEOCP
n   0.39658953 +/- 0.355083         Peri.  291.90174 +/- 100.84072
a   1.83474288 +/- 1.09513          Node   236.42950 +/- 36.677647
e   0.2476214 +/- 0.270665          Incl.   23.46906 +/- 12.792651
P   2.49/907.72d           H 19.8   G  0.15   U 12.0  SR
q 1.38042111 +/- 0.902514    Q 2.28906466 +/- 129.241
From 3 observations 2021 Feb. 16 (32.1 min); mean residual 0".07
Residuals in arcseconds: 
210216 F51  .06-  .04-    210216 F51  .12+  .08+    210216 F51  .06-  .04-    

Ephemerides (geocentric):
Date (UTC) HH   RA              Dec         delta   r     elong  mag " sig PA
---- -- -- --  -------------   -----------  ------ ------ -----  --- ---- ---
2021 02 28 15  06 22 14.887   -25 12 56.89  .74716 1.4124 107.9 21.5 3939 156
2021 02 28 16  06 22 17.011   -25 12 30.95  .74725 1.4123 107.9 21.5 3968 156
2021 02 28 17  06 22 19.140   -25 12 04.98  .74735 1.4123 107.9 21.5 3998 156
2021 02 28 18  06 22 21.275   -25 11 38.98  .74744 1.4122 107.9 21.5 4027 156
2021 02 28 19  06 22 23.416   -25 11 12.97  .74753 1.4121 107.8 21.5 4057 156
2021 02 28 20  06 22 25.562   -25 10 46.93  .74762 1.4121 107.8 21.5 4087 156
2021 02 28 21  06 22 27.713   -25 10 20.87  .74771 1.4120 107.8 21.5 4117 156
2021 02 28 22  06 22 29.870   -25 09 54.78  .74780 1.4119 107.8 21.5 4148 155
2021 02 28 23  06 22 32.032   -25 09 28.67  .74789 1.4119 107.8 21.5 4179 155
2021 03 01 00  06 22 34.200   -25 09 02.54  .74798 1.4118 107.8 21.5 4210 155
2021 03 01 01  06 22 36.373   -25 08 36.38  .74807 1.4118 107.7 21.5 4241 155
2021 03 01 02  06 22 38.551   -25 08 10.20  .74816 1.4117 107.7 21.5 4273 155
2021 03 01 03  06 22 40.735   -25 07 44.00  .74825 1.4116 107.7 21.5 4305 155
2021 03 01 04  06 22 42.925   -25 07 17.78  .74834 1.4116 107.7 21.5 4338 155
2021 03 01 05  06 22 45.120   -25 06 51.53  .74843 1.4115 107.7 21.6 4371 155
2021 03 01 06  06 22 47.320   -25 06 25.26  .74852 1.4114 107.7 21.6 4404 155
2021 03 01 07  06 22 49.526   -25 05 58.97  .74861 1.4114 107.7 21.6 4437 154
2021 03 01 08  06 22 51.738   -25 05 32.65  .74870 1.4113 107.6 21.6 4471 154
2021 03 01 09  06 22 53.954   -25 05 06.31  .74879 1.4113 107.6 21.6 4505 154
2021 03 01 10  06 22 56.177   -25 04 39.95  .74888 1.4112 107.6 21.6 4540 154
2021 03 01 11  06 22 58.404   -25 04 13.57  .74897 1.4111 107.6 21.6 4575 154
2021 03 01 12  06 23 00.637   -25 03 47.16  .74906 1.4111 107.6 21.6 4610 154
2021 03 01 13  06 23 02.876   -25 03 20.73  .74915 1.4110 107.6 21.6 4646 154
2021 03 01 14  06 23 05.120   -25 02 54.28  .74924 1.4110 107.5 21.6 4682 154
2021 03 01 15  06 23 07.369   -25 02 27.81  .74933 1.4109 107.5 21.6 4718 154
2021 03 01 16  06 23 09.624   -25 02 01.31  .74943 1.4108 107.5 21.6 4755 154
2021 03 01 17  06 23 11.884   -25 01 34.79  .74952 1.4108 107.5 21.6 4792 153
2021 03 01 18  06 23 14.150   -25 01 08.25  .74961 1.4107 107.5 21.6 4830 153
2021 03 01 19  06 23 16.421   -25 00 41.69  .74970 1.4106 107.5 21.6 4868 153
2021 03 01 20  06 23 18.697   -25 00 15.10  .74979 1.4106 107.4 21.6 4907 153
2021 03 01 21  06 23 20.979   -24 59 48.49  .74988 1.4105 107.4 21.6 4946 153
2021 03 01 22  06 23 23.267   -24 59 21.86  .74997 1.4105 107.4 21.6 4985 153
2021 03 01 23  06 23 25.559   -24 58 55.21  .75006 1.4104 107.4 21.6 5025 153
2021 03 02 00  06 23 27.857   -24 58 28.53  .75015 1.4103 107.4 21.6 5065 153
2021 03 02 01  06 23 30.161   -24 58 01.83  .75024 1.4103 107.4 21.6 5106 153
2021 03 02 02  06 23 32.470   -24 57 35.11  .75033 1.4102 107.4 21.6 5147 153
2021 03 02 03  06 23 34.784   -24 57 08.37  .75042 1.4102 107.3 21.6 5188 152
2021 03 02 04  06 23 37.104   -24 56 41.61  .75051 1.4101 107.3 21.6 5231 152
2021 03 02 05  06 23 39.429   -24 56 14.82  .75060 1.4100 107.3 21.6 5273 152
2021 03 02 06  06 23 41.760   -24 55 48.01  .75069 1.4100 107.3 21.6 5316 152
2021 03 02 07  06 23 44.096   -24 55 21.18  .75078 1.4099 107.3 21.6 5360 152
2021 03 02 08  06 23 46.437   -24 54 54.33  .75087 1.4099 107.3 21.6 5404 152
2021 03 02 09  06 23 48.784   -24 54 27.46  .75096 1.4098 107.2 21.6 5449 152
2021 03 02 10  06 23 51.136   -24 54 00.56  .75105 1.4097 107.2 21.6 5494 152
2021 03 02 11  06 23 53.494   -24 53 33.65  .75114 1.4097 107.2 21.6 5540 152
2021 03 02 12  06 23 55.856   -24 53 06.71  .75123 1.4096 107.2 21.6 5587 151
2021 03 02 13  06 23 58.225   -24 52 39.75  .75132 1.4096 107.2 21.6 5634 151
2021 03 02 14  06 24 00.598   -24 52 12.76  .75141 1.4095 107.2 21.6 5681 151